This demonstration page uses our WeatherBlox Daily Observations layout. Learn more.

Left ArrowRight Arrow

39.92423, -83.80882

Hourly Observations for January 4, 2018

Temp ( °F °C ) Dew Point ( °F °C ) Humidity (%) Winds ( mph kmh ) Pressure ( in mb ) Visibility ( mi km ) Precip ( " mm )
12:36 am 00:36 Cloudy with Light Snow 12 -11 9 -13 85 85 WNW 9 15 30.18 1022 6 9.65604 0 0.0254
12:45 am 00:45 Cloudy with Light Snow 12 -11 9 -13 85 85 WNW 8 13 30.18 1022 6 9.65604 0 0.0254
12:56 am 00:56 Cloudy with Light Snow 12 -11.1 8 -13.3 84 84 WNW 9 15 30.11 1020 6 9.65604 0 0.0254
1:56 am 01:56 Cloudy with Light Snow 12 -11.1 9 -12.8 87 87 WNW 14 22 30.11 1020 7 11.26538 0 0.0254
2:56 am 02:56 Cloudy with Light Snow 11 -11.7 7 -13.9 84 84 WNW 13 20 30.12 1020 7 11.26538 0 0.0254
3:56 am 03:56 Cloudy with Light Snow 9 -12.8 5 -15 84 84 W 10 17 30.13 1020 9 14.48406 0 0.0254
4:56 am 04:56 Cloudy with Light Snow 9 -12.8 5 -15 84 84 WNW 9 15 30.13 1020 9 14.48406 0 0.0254
5:33 am 05:33 Cloudy with Light Snow 9 -13 5 -15 85 85 WNW 9 15 30.18 1022 9 14.48406 0 0.0254
5:56 am 05:56 Cloudy with Light Snow 8 -13.3 5 -15 87 87 WNW 9 15 30.13 1020 7 11.26538 0 0.0254
6:36 am 06:36 Cloudy with Light Snow 9 -13 5 -15 85 85 WNW 8 13 30.18 1022 8 12.87472 0 0.0254
6:56 am 06:56 Cloudy with Light Snow 8 -13.3 5 -15 87 87 WNW 7 11 30.15 1021 8 12.87472 0 0.0254
7:56 am 07:56 Cloudy with Light Snow 10 -12.2 7 -13.9 87 87 WNW 10 17 30.15 1021 8 12.87472 0 0.0254
8:56 am 08:56 Cloudy with Light Snow 11 -11.7 8 -13.3 88 88 WNW 12 19 30.16 1021 9 14.48406 0 0.0254
9:53 am 09:53 Cloudy with Light Snow 12 -11 9 -13 85 85 NNW 17 28 30.21 1023 9 14.48406 0 0.0254
9:56 am 09:56 Cloudy with Light Snow 12 -11.1 7 -13.9 80 80 NW 16 26 30.16 1022 9 14.48406 0 0.0254
10:08 am 10:08 Cloudy 12 -11 3 -16 67 67 NW 18 30 30.21 1023 10 16.0934 0 0.0254
10:56 am 10:56 Cloudy 12 -11.1 3 -16.1 67 67 NNW 15 24 30.18 1022 10 16.0934 0 0.0254
11:56 am 11:56 Cloudy 13 -10.6 4 -15.6 67 67 NW 17 28 30.18 1022 10 16.0934 0 0
12:56 pm 12:56 Cloudy 15 -9.4 4 -15.6 61 61 NW 15 24 30.16 1022 10 16.0934 0 0
1:56 pm 13:56 Cloudy 15 -9.4 4 -15.6 61 61 NNW 13 20 30.16 1021 10 16.0934 0 0
2:56 pm 14:56 Cloudy 15 -9.4 4 -15.6 61 61 WNW 15 24 30.18 1022 10 16.0934 0 0
3:56 pm 15:56 Cloudy with Light Snow 15 -9.4 8 -13.3 74 74 W 15 24 30.18 1022 6 9.65604 0 0.0254
4:56 pm 16:56 Cloudy 15 -9.4 7 -13.9 70 70 WNW 17 28 30.19 1022 10 16.0934 0 0.0254
5:56 pm 17:56 Cloudy with Light Snow 12 -11.1 6 -14.4 77 77 W 14 22 30.19 1022 9 14.48406 0 0.0254
6:56 pm 18:56 Cloudy with Light Snow 10 -12.2 6 -14.4 84 84 W 12 19 30.2 1023 9 14.48406 0 0.0254
7:03 pm 19:03 Cloudy with Light Snow 10 -12 7 -14 85 85 W 13 20 30.24 1024 9 14.48406 0 0.0254
7:45 pm 19:45 Cloudy with Light Snow 10 -12 7 -14 85 85 WNW 15 24 30.27 1025 4 6.43736 0 0.0254
7:56 pm 19:56 Cloudy with Light Snow 11 -11.7 6 -14.4 81 81 WNW 18 30 30.21 1023 3 4.82802 0 0.0254
8:24 pm 20:24 Cloudy with Light Snow 9 -13 5 -15 85 85 W 15 24 30.27 1025 6 9.65604 0 0.0254
8:56 pm 20:56 Cloudy with Light Snow 7 -13.9 3 -16.1 84 84 W 14 22 30.23 1024 9 14.48406 0 0.0254
9:56 pm 21:56 Cloudy with Light Snow 6 -14.4 2 -16.7 83 83 W 12 19 30.24 1024 9 14.48406 0 0.0254
10:56 pm 22:56 Cloudy with Light Snow 5 -15 1 -17.2 83 83 W 9 15 30.25 1024 9 14.48406 0 0.0254
11:56 pm 23:56 Cloudy with Light Snow 6 -14.4 2 -16.7 83 83 WNW 13 20 30.25 1024 9 14.48406 0 0.0254

Powered by AerisWeather